RH
72 78 79 84 87 89 89 86 86 88 88 85 83 79 71 67 64 61 64 64 67 70 71 72 73 71 69 68 70 70 69 66 66 66 64 61 59 59 58 56 56 56 57 58 59 60 61 61 59 61 61 61 61 59 56 55 54 53 52 52 53 54 55 54 52 52 52 52 54 52 52 54 51 49 47 43 48 55 57 59 57 56 58 60 58 56 55 54 53 51 52 52 52 50 48 46 46
76 81 82 87 89 89 88 87 89 90 88 85 82 77 67 65 62 60 63 63 65 67 68 71 71 70 67 66 66 65 67 68 63 59 58 57 56 55 53 51 51 52 53 54 55 57 58 59 59 60 60 61 61 58 56 55 53 52 51 51 53 55 55 54 52 54 54 51 52 52 52 53 50 47 46 44 48 53 56 59 58 58 59 61 59 56 56 53 51 51 51 51 51 49 48 47 47
78 82 85 86 87 88 89 88 91 90 87 83 78 72 65 63 62 60 60 58 60 63 66 70 70 69 68 66 66 64 65 65 58 53 54 53 52 52 50 49 49 50 50 51 53 54 57 58 58 59 59 59 58 56 55 54 53 52 52 53 55 56 53 51 53 55 55 52 52 53 52 52 49 47 46 44 48 53 56 58 57 58 62 64 60 58 58 53 50 51 51 50 50 48 48 48 49
80 84 85 85 84 88 90 90 91 89 87 82 73 69 68 65 62 58 58 58 60 63 65 68 69 68 69 67 63 63 63 61 57 50 51 52 50 49 48 48 47 48 48 49 52 53 56 57 57 58 57 57 56 55 54 53 53 53 52 52 53 52 49 49 51 54 55 54 55 54 52 52 49 48 47 45 48 53 57 58 57 60 64 63 61 60 56 52 51 51 51 52 50 49 48 48 50
81 85 85 85 86 88 90 91 91 89 87 81 73 70 70 68 62 57 57 60 63 65 65 66 69 67 66 65 60 61 58 55 55 50 49 50 49 48 48 47 47 47 47 49 51 53 56 57 57 57 56 54 53 53 53 53 53 54 52 52 52 50 49 50 51 52 54 54 55 55 53 52 50 49 49 47 48 53 57 58 57 60 63 62 61 57 53 51 52 52 52 52 50 48 47 47 51
81 84 85 86 85 87 90 91 91 90 86 79 75 71 68 67 62 57 56 60 63 64 64 65 69 67 63 62 61 59 54 51 51 48 49 50 49 48 47 47 46 46 46 48 50 53 56 57 57 55 53 52 52 53 53 54 54 54 55 54 54 52 51 52 52 52 52 51 53 53 54 53 51 50 50 50 48 49 56 57 57 59 61 61 60 55 52 50 51 53 51 49 49 48 47 47 50
82 84 85 84 83 88 92 92 92 91 83 78 78 71 67 68 62 56 55 57 61 61 62 63 64 65 64 61 60 58 52 48 47 47 48 50 49 48 46 46 45 45 45 47 50 53 55 55 54 53 52 52 54 56 57 57 57 58 58 58 57 55 53 54 53 53 52 50 52 54 56 54 53 52 50 51 48 47 54 56 56 59 61 61 60 55 51 49 49 50 48 47 48 47 48 48 50
80 83 84 85 85 89 93 93 93 90 82 80 77 69 67 69 61 56 57 57 58 59 59 59 59 63 63 60 59 56 49 46 46 47 47 49 49 47 46 45 45 45 45 47 50 53 53 54 53 53 54 55 57 60 61 61 62 62 62 62 59 57 56 55 52 53 52 50 51 54 57 56 55 53 51 51 48 48 54 56 57 60 61 60 59 55 49 48 45 45 47 47 47 48 50 51 52
78 83 85 87 86 86 92 93 91 89 85 82 73 65 66 67 62 57 57 57 54 54 55 55 57 62 60 58 59 52 46 46 48 49 49 50 48 46 45 45 46 45 46 48 51 53 54 56 56 56 57 59 60 62 63 63 64 63 64 63 60 59 59 56 54 54 53 50 51 53 57 57 56 56 53 52 50 50 54 57 59 61 61 60 58 52 47 44 41 41 44 47 47 48 51 53 52
75 81 84 87 86 86 92 93 91 90 87 80 69 65 67 66 63 59 57 56 52 51 52 53 56 58 56 55 56 51 45 47 49 51 51 50 47 46 46 46 46 46 48 50 52 55 57 60 59 59 60 62 63 63 61 61 62 65 67 63 60 61 60 59 60 59 57 55 54 54 56 57 58 58 56 55 53 53 55 59 60 59 59 60 57 49 44 41 38 38 41 45 47 49 53 53 49
75 77 80 86 86 85 91 93 91 92 87 76 67 67 70 65 62 61 58 57 52 52 51 52 53 53 55 54 55 51 46 47 50 51 51 51 50 51 50 48 47 47 50 52 55 57 58 60 61 61 61 61 62 62 60 59 61 67 70 64 59 59 59 62 64 63 63 62 60 58 56 57 59 59 59 58 54 53 57 60 59 56 52 50 50 45 40 38 36 37 40 44 47 50 53 52 45
76 77 79 86 87 84 87 90 90 92 85 74 70 72 72 65 62 63 59 55 51 51 50 49 49 50 54 54 54 50 46 48 50 50 50 52 54 54 51 49 49 50 51 53 57 59 59 59 60 62 61 61 61 59 61 63 65 68 69 64 59 57 57 61 64 66 66 65 63 61 57 56 59 59 62 60 55 54 58 60 57 52 44 39 40 39 37 37 35 35 39 43 47 50 53 49 41
77 77 80 85 86 86 87 88 90 90 83 74 72 77 74 65 65 65 59 54 51 50 47 47 49 50 54 54 55 51 48 50 50 51 52 54 56 55 51 51 51 51 52 55 59 61 59 58 60 62 64 66 64 61 64 67 70 70 67 63 62 61 60 61 64 66 66 67 65 61 57 58 60 60 63 61 54 56 60 59 52 46 37 32 34 36 35 35 34 34 38 43 46 50 52 47 41
75 76 81 85 86 87 86 88 91 89 82 75 75 79 75 67 66 65 60 55 52 50 46 48 50 50 54 53 53 51 50 54 53 54 54 56 57 54 53 54 53 52 53 57 61 62 60 59 60 62 65 67 65 65 68 67 70 70 67 67 67 65 64 64 67 68 68 69 65 61 60 61 62 61 61 58 56 59 60 56 45 37 31 28 31 34 33 33 34 34 37 41 45 48 49 46 41
72 73 81 86 87 87 85 89 90 89 81 75 80 80 76 71 67 64 60 55 51 50 48 49 50 50 52 50 50 50 52 55 55 55 55 56 56 56 56 56 58 58 58 60 62 62 61 60 60 62 64 64 64 66 67 66 70 70 68 70 70 67 67 69 69 69 70 70 65 63 64 64 63 61 58 56 60 61 57 51 38 29 28 29 31 32 32 33 33 33 36 40 44 45 45 45 40
70 72 82 86 86 87 87 90 91 88 80 76 82 81 79 76 69 64 61 56 50 49 49 48 48 48 49 48 49 50 52 54 55 56 55 55 57 57 57 58 61 63 63 64 64 63 63 62 62 63 63 62 64 66 65 67 71 72 70 72 72 71 72 72 71 69 70 70 66 66 66 64 64 60 56 57 62 60 54 47 34 27 29 31 31 31 31 32 32 33 36 41 43 42 43 43 38
68 73 81 85 86 87 86 90 93 89 80 80 85 83 82 79 73 66 60 58 50 45 47 48 47 46 48 49 49 51 52 54 56 57 55 55 56 56 58 61 64 65 66 67 66 65 66 65 63 64 63 61 63 65 67 71 74 74 73 74 75 74 73 73 73 71 70 70 68 68 66 62 61 58 54 57 60 58 54 48 36 29 31 31 30 30 31 31 31 33 38 41 42 41 43 41 37
70 76 81 84 86 88 87 90 93 89 81 83 89 84 83 84 78 68 61 59 49 43 46 46 45 47 49 49 50 52 52 53 55 55 54 54 54 55 60 64 65 67 68 65 65 66 67 67 64 64 63 62 63 66 69 72 75 74 73 75 76 75 75 73 73 71 70 69 66 67 65 59 56 54 53 56 58 59 57 49 38 32 30 30 30 30 31 31 32 35 39 41 40 42 43 40 38
73 78 81 83 85 90 92 92 93 89 83 84 88 83 80 83 78 70 65 57 47 44 47 45 44 49 51 50 51 52 52 52 53 53 52 52 52 53 58 65 68 68 66 63 65 66 66 66 63 62 62 63 66 66 68 72 74 74 74 75 75 74 74 73 71 69 68 66 65 65 63 59 56 54 54 57 59 61 58 50 39 33 30 29 29 30 31 31 33 36 38 39 41 43 42 39 38
74 77 81 82 82 89 94 92 90 87 85 84 86 83 79 79 76 73 66 56 51 47 45 44 43 48 52 51 50 52 52 52 52 51 51 51 52 53 57 65 69 67 64 62 64 65 64 64 63 61 61 65 68 66 67 71 73 74 74 74 75 74 73 72 71 68 67 66 66 65 62 59 57 56 58 60 62 61 56 48 40 34 31 30 30 31 30 31 34 36 37 39 42 43 40 38 37
73 76 81 82 79 88 94 90 87 86 86 85 85 83 80 77 77 75 63 56 55 49 46 44 42 46 51 50 49 51 52 51 50 49 51 51 53 55 58 64 66 62 60 62 64 64 65 65 64 62 62 66 67 66 68 70 72 73 73 72 74 75 73 71 69 67 67 67 66 64 61 59 59 58 60 61 61 58 53 46 41 36 34 32 31 31 31 34 37 38 38 40 42 42 39 37 35
71 74 78 80 79 86 92 88 84 85 85 85 84 84 81 79 79 74 62 56 53 47 46 44 41 44 47 47 48 50 50 49 49 49 51 52 54 57 59 63 63 59 59 62 64 65 67 66 66 64 64 66 66 66 67 69 70 70 69 70 72 73 72 71 69 67 66 66 64 63 61 61 61 61 62 61 59 55 51 47 41 37 35 32 31 32 35 39 41 40 41 42 42 40 36 34 33
69 74 78 79 79 81 87 88 85 84 83 84 84 83 81 79 78 72 63 58 52 48 47 45 44 45 45 45 46 48 48 47 47 48 50 52 54 58 60 61 60 58 60 63 65 67 68 67 67 66 65 66 66 66 67 67 68 67 66 68 71 71 72 72 70 67 66 65 64 63 62 61 62 62 60 58 55 53 50 46 42 38 37 34 32 35 38 41 41 40 41 42 40 38 35 33 33
67 75 79 80 81 80 83 88 89 86 84 83 83 82 80 79 78 71 63 59 54 51 49 47 50 48 44 44 45 47 46 46 46 47 50 53 55 57 59 59 58 57 59 62 66 69 68 67 67 67 67 67 67 67 68 67 65 65 64 65 69 70 70 71 69 67 65 65 64 63 62 61 61 59 56 54 52 49 47 45 43 42 41 38 35 37 39 40 41 40 40 40 39 36 34 32 32
68 74 77 79 83 84 84 88 90 88 85 84 83 82 79 79 78 71 63 58 55 54 49 46 49 47 43 43 44 45 45 46 46 47 51 54 56 57 57 57 57 57 58 61 65 67 67 67 67 66 67 67 67 69 69 66 63 61 61 62 67 67 67 68 67 65 64 64 63 62 61 61 59 56 54 53 50 48 45 45 45 45 43 42 41 41 41 41 40 39 39 39 39 36 33 32 32
69 73 77 78 82 84 84 88 88 85 84 84 83 82 79 80 78 70 63 58 56 57 50 43 42 41 40 43 43 44 44 45 46 48 52 54 56 56 56 56 56 56 58 59 62 66 68 67 67 67 67 66 65 67 66 64 61 60 58 59 63 64 64 65 64 63 62 61 60 60 59 58 56 55 53 53 51 49 48 47 47 46 45 46 46 45 42 39 38 38 37 38 38 36 34 33 33
69 73 77 77 80 83 85 89 88 86 85 83 82 82 81 82 79 71 66 60 59 59 53 43 39 37 38 42 43 44 44 44 46 48 52 55 56 56 56 56 56 57 57 58 61 65 67 66 66 66 65 63 63 64 63 61 58 57 56 58 61 62 63 63 63 62 60 59 59 58 58 56 55 54 54 53 52 51 50 49 48 48 48 48 47 44 41 39 38 36 36 36 36 36 35 33 33
70 73 76 77 79 83 87 90 90 89 87 84 83 83 84 85 81 72 66 63 61 61 56 46 40 38 38 41 43 44 43 43 46 49 51 54 55 55 56 57 57 58 60 60 60 62 63 64 64 64 62 60 61 62 60 58 56 55 55 56 59 59 60 61 62 61 60 59 58 57 56 55 55 55 54 53 53 53 52 51 51 51 50 48 46 43 40 40 39 36 36 37 37 37 36 34 34
70 71 75 78 77 82 88 89 90 91 88 84 82 84 86 85 80 71 64 64 64 63 58 49 43 40 38 41 43 43 42 43 46 50 51 52 54 55 56 57 56 58 61 60 59 59 60 62 62 60 58 57 59 59 56 54 53 52 52 53 55 56 56 58 60 61 60 59 58 57 57 56 56 56 55 54 54 55 54 55 54 53 51 49 46 41 39 40 39 37 36 37 38 38 37 34 33
70 72 75 78 77 82 88 87 88 90 89 84 81 85 87 83 76 67 64 64 64 64 60 51 46 42 38 40 42 42 42 42 46 50 51 52 54 55 56 56 56 58 59 58 58 58 59 61 60 57 55 56 58 55 51 49 48 47 48 50 51 52 54 55 58 60 61 60 60 59 58 58 56 55 53 53 53 53 54 54 53 51 50 49 46 41 39 40 38 36 36 37 39 39 38 34 33
73 74 73 77 79 84 87 86 88 89 90 86 84 86 83 79 71 63 64 64 61 62 59 53 48 43 39 39 41 41 41 41 46 50 50 52 53 53 56 56 55 57 56 57 58 58 58 59 58 55 53 56 56 52 47 45 45 44 45 47 48 50 52 54 57 60 61 60 59 58 56 54 53 51 50 49 49 48 49 50 50 49 48 47 45 40 39 39 37 35 36 39 40 41 40 36 35
75 75 74 77 81 86 87 85 88 90 90 86 85 85 81 78 70 62 65 64 59 59 58 54 48 42 38 38 40 40 38 39 46 49 51 54 54 52 55 55 55 56 55 55 57 57 57 58 57 54 53 54 54 51 46 44 44 43 45 46 48 50 52 54 58 59 59 57 55 52 50 49 48 48 47 47 46 45 47 48 48 48 47 45 42 38 38 39 37 36 38 40 42 42 41 38 35
75 75 75 79 82 87 88 85 87 90 91 88 86 85 79 76 70 64 64 63 59 58 59 53 45 39 36 37 38 38 36 37 43 47 51 56 55 52 53 55 54 55 54 53 54 55 55 56 55 54 52 51 52 51 48 45 43 43 46 48 50 52 54 55 57 57 55 53 50 47 46 46 47 48 47 46 45 47 48 48 47 47 44 41 39 38 39 40 38 38 39 41 42 42 42 40 35
74 76 76 80 83 85 86 85 87 89 92 90 87 85 78 71 68 66 67 67 63 58 58 52 43 37 36 35 36 35 34 36 41 44 50 57 56 53 52 54 54 54 54 52 52 54 54 54 53 52 51 49 49 50 49 46 43 43 45 48 52 54 56 55 54 54 53 51 47 46 45 45 47 49 48 47 47 48 49 47 46 46 43 40 39 39 40 41 40 40 40 40 41 42 43 40 36
71 75 76 81 84 83 82 85 87 88 91 90 86 85 80 70 68 72 74 74 67 58 56 49 40 36 35 34 35 35 35 35 39 43 49 56 57 56 54 54 54 53 54 53 52 54 54 53 51 50 49 48 48 49 49 47 44 43 45 47 51 55 56 54 51 52 52 50 48 48 48 48 49 50 50 49 48 48 47 45 43 44 46 43 40 39 40 41 41 40 40 40 42 43 43 42 37
70 71 75 81 83 82 81 85 88 88 90 91 88 85 80 72 70 75 80 78 69 58 52 45 39 35 35 36 36 36 37 37 39 42 47 53 56 56 56 54 54 53 53 53 53 54 54 52 50 49 48 48 48 49 49 48 45 43 43 45 48 50 51 49 48 50 51 49 49 49 50 50 50 49 49 48 46 45 44 43 41 43 46 44 41 40 40 40 40 40 41 43 45 44 43 42 39
71 71 76 82 83 82 82 87 89 88 89 92 91 86 80 74 72 78 83 81 69 56 51 44 38 36 36 39 39 39 40 41 42 43 45 52 55 56 55 54 54 54 53 53 52 52 53 51 49 48 49 48 48 48 49 48 44 42 41 42 43 44 44 43 44 48 49 50 50 49 50 49 47 47 47 46 43 42 42 41 40 42 44 44 43 42 40 40 40 40 42 45 45 43 43 42 39
71 72 78 84 86 85 85 88 89 88 90 93 92 89 83 78 78 81 85 84 68 54 52 45 39 39 39 41 41 42 44 44 45 44 45 51 55 56 55 52 53 54 53 53 51 50 51 51 49 49 50 49 47 46 47 46 42 39 39 40 41 40 39 39 42 45 47 48 48 47 47 47 45 44 44 43 41 40 40 40 40 41 43 44 44 42 40 39 39 40 42 45 43 42 42 41 38
67 72 77 81 83 83 84 86 86 88 92 93 93 94 90 85 84 84 85 84 71 56 53 47 42 44 43 42 44 45 45 43 43 43 45 50 54 55 55 52 52 53 52 52 51 48 49 50 48 48 49 48 46 44 44 44 41 39 39 40 39 37 37 38 39 42 44 44 44 43 44 44 43 42 41 40 39 38 38 39 39 40 42 43 44 43 40 38 38 39 42 44 44 43 42 39 38
62 70 73 75 77 78 81 83 84 87 90 93 94 95 95 92 90 88 85 83 73 59 54 50 45 45 45 43 43 45 42 39 40 42 43 48 52 53 54 54 52 52 51 51 50 48 48 47 46 46 47 47 46 45 43 42 40 39 40 41 39 37 37 39 40 42 42 42 42 41 41 42 42 41 40 39 38 36 36 38 39 40 42 42 43 43 41 39 39 40 42 44 45 45 43 41 39
58 64 67 71 74 74 78 82 82 85 89 93 96 98 98 95 92 91 87 84 77 63 55 54 49 45 46 44 43 43 40 37 38 41 42 45 49 51 53 54 53 52 51 49 48 49 48 47 45 44 44 45 45 45 44 43 41 40 41 41 40 37 35 37 39 40 40 38 38 38 38 40 41 40 41 40 37 34 35 39 40 41 42 42 43 43 41 40 39 40 42 43 44 46 45 44 42
56 61 63 67 72 74 78 80 81 87 91 91 94 98 99 96 93 92 90 87 82 69 58 56 54 49 47 46 45 43 39 37 38 39 41 42 46 50 53 54 52 52 51 47 46 47 47 46 44 43 43 44 44 44 44 45 44 43 43 43 41 38 35 35 35 36 36 34 32 33 33 35 36 36 37 39 37 35 37 40 42 41 41 42 44 44 42 40 40 40 41 43 44 46 47 45 42
59 60 60 65 72 75 77 76 79 86 88 86 89 95 98 97 94 91 91 90 85 76 63 58 57 53 49 47 46 45 41 38 39 39 39 41 44 49 53 53 52 52 52 48 45 45 45 45 44 42 42 43 43 44 43 43 46 46 45 44 43 40 37 35 34 35 36 33 30 31 32 32 32 32 34 36 37 37 40 42 43 42 41 40 42 42 41 41 41 41 40 42 45 46 47 45 42
57 57 59 66 70 73 73 73 78 83 84 86 88 92 96 97 93 90 91 91 87 81 70 61 59 57 53 50 48 47 44 41 40 40 40 41 43 47 51 51 50 52 53 49 45 44 45 45 45 44 42 41 42 43 42 42 46 48 46 45 44 42 39 36 35 35 36 35 31 32 34 34 33 32 33 35 37 38 39 40 40 39 39 40 41 41 41 41 43 43 41 42 44 45 45 45 44
53 53 59 66 69 71 72 74 79 81 84 88 89 90 93 95 93 92 93 92 88 84 75 64 59 58 56 53 50 49 48 45 42 41 41 41 42 44 49 50 50 52 53 51 48 44 45 45 46 47 44 41 41 42 43 43 47 49 47 47 46 43 40 37 36 35 34 34 32 33 35 35 34 34 35 36 37 36 37 38 37 35 36 38 40 41 41 41 41 42 41 41 44 45 46 46 45
52 52 59 66 69 73 75 79 81 82 83 87 89 87 87 91 93 93 95 93 89 85 80 70 62 60 59 56 53 52 52 51 48 45 42 42 42 43 48 51 50 51 53 52 51 47 45 45 45 47 46 43 42 42 42 42 46 49 48 48 48 44 41 38 36 35 34 32 31 32 34 34 34 36 36 37 37 35 35 37 37 36 36 36 38 40 41 41 40 40 41 42 43 45 46 46 45
52 56 62 67 72 75 78 84 85 87 87 86 88 87 85 89 90 90 90 88 86 85 83 77 68 63 61 58 55 54 55 56 54 51 47 44 44 44 47 51 49 50 52 53 52 50 47 44 44 45 45 42 43 43 42 41 44 48 48 48 48 46 43 41 38 36 35 33 32 32 33 32 33 34 35 36 36 34 35 37 38 39 40 39 39 41 42 43 41 39 40 43 45 45 45 46 45
52 62 65 69 78 77 78 85 88 91 91 85 86 88 89 89 86 87 86 85 85 86 84 80 73 67 63 61 58 56 57 58 58 56 52 49 47 45 47 50 50 48 50 52 52 52 49 45 43 44 43 40 40 42 42 42 42 45 48 47 48 48 45 42 41 38 36 34 34 33 33 32 32 33 33 34 35 35 35 38 40 42 43 43 42 42 43 44 42 40 40 42 44 45 45 45 44
56 66 68 73 84 81 79 85 86 88 90 87 86 89 92 89 83 85 86 84 85 85 83 80 74 70 66 62 60 58 57 59 60 59 55 51 48 45 45 48 50 48 48 50 51 52 50 48 44 42 42 40 39 40 40 41 41 42 44 45 46 48 47 43 42 40 38 36 35 35 34 33 33 33 33 34 36 36 37 41 44 44 45 45 44 43 43 44 43 40 39 40 41 42 44 44 45
56 62 65 72 83 84 82 83 83 84 86 87 87 89 91 88 84 84 83 82 83 82 83 81 75 72 69 64 61 59 57 57 60 59 57 54 49 46 44 45 48 47 46 47 50 51 51 50 47 43 40 40 41 41 40 40 40 39 40 41 43 45 46 44 42 41 40 37 36 37 36 36 35 34 34 34 36 37 38 41 45 45 44 45 46 45 44 43 42 39 38 38 38 39 40 41 42
54 56 63 67 71 76 80 81 81 85 87 88 89 88 86 86 87 84 80 81 83 81 82 83 79 74 70 66 63 60 57 57 59 59 58 55 51 48 45 44 45 47 46 46 48 51 51 51 49 46 42 40 40 42 42 42 41 40 40 40 40 42 43 42 42 43 43 41 38 38 38 37 37 35 34 34 35 36 38 40 43 44 44 45 47 47 45 44 42 39 38 36 35 36 35 35 36
61 61 65 67 65 65 73 77 77 84 89 89 89 86 81 82 85 85 82 83 84 83 82 83 82 76 72 68 64 61 58 57 57 58 57 56 54 51 47 44 44 45 46 46 47 49 50 49 49 49 47 43 40 41 42 43 43 43 43 41 40 41 42 42 42 43 44 44 42 40 40 40 38 37 36 35 34 35 36 38 40 42 43 45 47 48 47 46 45 43 42 39 37 35 33 33 32
66 65 64 63 61 63 71 76 76 79 83 84 85 83 80 79 80 84 86 86 86 85 83 83 83 79 74 70 67 63 59 58 58 57 56 56 54 53 49 46 45 44 46 47 46 47 47 47 47 47 49 47 44 41 41 42 42 43 44 43 41 42 42 41 42 42 43 45 45 43 44 43 41 40 39 37 36 35 35 36 38 39 41 43 46 47 47 47 47 47 46 43 41 39 37 36 34
61 64 62 59 58 59 66 75 79 78 80 84 84 82 81 79 79 82 84 85 86 85 83 83 83 81 77 72 69 66 61 60 61 58 57 56 55 54 52 49 46 44 46 47 46 46 45 45 45 45 45 47 48 46 42 41 40 40 42 42 40 41 42 42 41 43 43 44 44 45 45 45 43 42 41 40 39 38 35 35 36 37 38 40 42 43 44 44 45 45 46 45 43 42 41 40 38
51 58 58 58 61 60 61 69 76 77 82 86 83 81 79 75 76 79 79 80 82 81 82 82 81 80 78 73 70 69 64 62 62 61 59 57 57 55 53 52 49 46 47 48 47 46 45 44 45 44 44 45 47 49 47 43 41 40 41 42 39 38 41 42 42 44 45 43 44 45 45 44 43 43 43 42 41 40 38 36 36 35 35 36 38 39 40 41 41 41 42 42 41 40 40 41 41
43 53 53 56 61 62 60 62 64 70 81 82 76 77 74 66 67 72 73 74 76 76 78 80 79 77 76 75 73 71 66 62 61 61 59 58 57 56 55 54 52 49 48 49 49 48 46 45 44 44 44 43 44 47 49 47 45 43 43 43 41 40 41 42 43 45 45 44 44 45 44 43 43 44 45 44 43 42 41 40 38 36 35 35 35 36 37 38 38 37 37 37 38 38 39 41 41
41 50 52 52 54 55 56 56 56 62 75 79 73 71 65 60 63 66 68 71 71 71 73 75 77 76 76 76 76 74 69 62 60 60 59 57 58 57 56 56 55 52 50 49 50 48 47 46 45 44 43 41 40 43 47 48 48 48 46 43 43 43 43 44 45 45 45 44 44 45 45 44 44 45 46 46 45 44 43 42 41 39 37 36 35 34 35 35 35 34 34 35 36 37 38 39 40
43 48 49 47 49 51 56 57 54 54 63 69 68 65 60 60 63 63 65 69 68 68 70 72 74 76 76 75 76 76 71 63 59 60 59 58 58 58 57 57 56 54 50 48 49 49 49 48 47 46 44 41 37 38 42 46 47 48 46 44 44 44 43 43 43 44 45 44 45 46 46 45 45 45 47 48 47 44 44 43 43 42 40 38 36 35 34 33 33 32 32 34 36 37 38 39 41